Volver al catálogo

CZ-6A DEB

ActivoPO
NORAD 64646·DEBRIS·🇨🇳 China

Lanzado Aug 6, 2024 desde Taiyuan Satellite Launch Center

Loading…

Próximos Pases (próximas 24 horas)

TLE

ActualizadoSource: Space-Track

Época: Sep 14, 2026, 06:01 UTC

1 64646U 24140AEL 26257.25135835  .00005938  00000-0  15402-2 0  9990
2 64646  88.2083 188.1707 0057255 274.7983  84.6687 14.48675682101500

Sigue CZ-6A DEB en tiempo real con AllMySat

Download on the App Store